Home > Weather > Marburg > Past weeks

Flag for Germany Past Weather in Marburg, Hesse, Germany — Yesterday and Last 2 Weeks

Now
64 °F

Partly cloudy.


Feels Like: 64 °F
Forecast: 50 / 62 °F
Wind: 7 mph from South

Location: Fritzlar Airport

Current Time: Jul 2, 2016 at 12:30:07 AM

Latest Report: Jul 1, 2016 at 11:20 PM


Visibility: N/A

Pressure: 29.92 "Hg

Humidity: 78%

Dew Point: 57 °F

Location of MarburgLocation

Past Weather in Marburg — Graph

°F

Marburg Temperature Yesterday

Maximum temperature yesterday: 75 °F (at 4:20 PM)
Minimum temperature yesterday: 61 °F (at 1:20 AM)
Average temperature yesterday: 68 °F

High & Low Weather Summary for the Past Weeks

 TemperatureHumidityPressure
High90 °F (Jun 23, 4:20 PM)100% (Jun 17, 4:20 AM)30.27 "Hg (Jun 17, 4:20 AM)
Low43 °F (Jun 20, 4:20 AM)38% (Jun 23, 4:20 PM)29.59 "Hg (Jun 16, 11:20 PM)
Average64 °F75%30.02 "Hg
* Reported Jun 16 10:20 PM — Jul 1 10:20 PM, Marburg, Weather by CustomWeather, © 2016

Note: Actual official high and low records may vary slightly from our data, if they occured in-between our weather recording intervals... More about our weather records

Advertising

Marburg Weather History for the Previous 24 Hours

Scroll right to see more
 ConditionsComfort  
Time TempWeatherWind HumidityBarometerVisibility
10:20 PM
Fri, Jul 1
68 °FPartly sunny.7 mph69%29.95 "HgN/A
9:20 PM70 °FPartly sunny.9 mph60%29.95 "HgN/A
8:20 PM72 °FPartly sunny.10 mph61%29.95 "HgN/A
7:20 PM72 °FPartly sunny.12 mph61%29.95 "HgN/A
6:20 PM73 °FBroken clouds.13 mph57%29.95 "HgN/A
5:20 PM75 °FPartly sunny.17 mph54%29.95 "HgN/A
4:20 PM75 °FBroken clouds.15 mph57%29.95 "HgN/A
3:20 PM73 °FBroken clouds.13 mph57%29.95 "HgN/A
2:20 PM73 °FBroken clouds.16 mph57%29.95 "HgN/A
1:20 PM72 °FBroken clouds.14 mph61%29.98 "HgN/A
12:20 PM72 °FBroken clouds.13 mph61%29.98 "HgN/A
11:20 AM73 °FBroken clouds.16 mph57%29.98 "HgN/A
10:20 AM70 °FBroken clouds.12 mph69%29.98 "HgN/A
10:00 AM70 °FScattered clouds.13 mph69%29.98 "HgN/A
9:20 AM68 °FBroken clouds.12 mph73%29.98 "HgN/A
8:20 AM64 °FBroken clouds.9 mph83%29.98 "HgN/A
7:20 AM63 °FBroken clouds.10 mph83%29.98 "HgN/A
6:20 AM63 °FPartly sunny.7 mph83%29.98 "HgN/A
5:20 AM61 °FPassing clouds.5 mph88%29.95 "HgN/A
4:20 AM61 °FPassing clouds.5 mph88%29.95 "HgN/A
3:20 AM63 °FPassing clouds.6 mph83%29.95 "HgN/A
2:20 AM61 °FPartly cloudy.7 mph83%29.95 "HgN/A
1:20 AM61 °FPassing clouds.3 mph83%29.95 "HgN/A
12:20 AM63 °FPassing clouds.7 mph77%29.98 "HgN/A
Weather by CustomWeather, © 2016

See weather overviewHow to use our weather pages